This is the latest recevied weather packets stored in our database for station/object KC4GS-13. If no packets are shown the sender has not sent any weather packets the latest 10 day(s).
| Time | Temp. | Humidity | Pressure | Rain* | Wind** | Luminosity | Snow |
|---|---|---|---|---|---|---|---|
| 1778145099 | 19.44° C | 98% | 1012.3 hPa | 0 mm | - | 0 W/m² | - |
| 1778144794 | 19.44° C | 98% | 1012.3 hPa | 0 mm | - | 0 W/m² | - |
| 1778144492 | 19.44° C | 98% | 1012.4 hPa | 0 mm | - | 0 W/m² | - |
| 1778144189 | 19.44° C | 98% | 1012.2 hPa | 0 mm | - | 0 W/m² | - |
| 1778143885 | 19.44° C | 98% | 1012.3 hPa | 0 mm | - | 0 W/m² | - |
| 1778143582 | 19.44° C | 98% | 1012.2 hPa | 0 mm | - | 0 W/m² | - |
| 1778143279 | 19.44° C | 98% | 1012 hPa | 0 mm | - | 0 W/m² | - |
| 1778142975 | 19.44° C | 98% | 1011.8 hPa | 4.32 mm | - | 0 W/m² | - |
| 1778142673 | 19.44° C | 98% | 1011.7 hPa | 6.1 mm | - | 0 W/m² | - |
| 1778142368 | 19.44° C | 98% | 1013.1 hPa | 6.1 mm | - | 0 W/m² | - |
| 1778142065 | 19.44° C | 98% | 1013 hPa | 9.65 mm | - | 0 W/m² | - |
| 1778141761 | 20° C | 97% | 1012.7 hPa | 7.87 mm | - | 0 W/m² | - |
| 1778141458 | 20° C | 97% | 1012.7 hPa | 3.05 mm | - | 0 W/m² | - |
| 1778141154 | 20° C | 97% | 1012.7 hPa | 1.27 mm | - | 0 W/m² | - |
| 1778140851 | 20° C | 97% | 1012.3 hPa | 1.27 mm | - | 0 W/m² | - |
| 1778140551 | 20° C | 97% | 1012.6 hPa | 3.05 mm | - | 0 W/m² | - |
| 1778140248 | 20° C | 97% | 1012.9 hPa | 4.83 mm | - | 0 W/m² | - |
| 1778139945 | 20° C | 97% | 1012.6 hPa | 6.1 mm | - | 0 W/m² | - |
| 1778139644 | 20° C | 97% | 1012.6 hPa | 6.1 mm | - | 0 W/m² | - |
| 1778139339 | 20° C | 96% | 1012.7 hPa | 3.05 mm | - | 0 W/m² | - |
| 1778139036 | 20° C | 96% | 1012.8 hPa | 1.78 mm | - | 0 W/m² | - |
| 1778138733 | 20° C | 96% | 1012.7 hPa | 1.78 mm | - | 0 W/m² | - |
| 1778138431 | 20° C | 96% | 1012.9 hPa | 1.27 mm | - | 0 W/m² | - |
| 1778138128 | 20° C | 95% | 1013.3 hPa | 3.05 mm | - | 0 W/m² | - |
| 1778137825 | 20° C | 95% | 1013.3 hPa | 3.05 mm | - | 0 W/m² | - |
* Rain latest hour (hover to see other rain measurements)
** Current wind speed in m/s (hover to see current wind gust speed)